This is the latest recevied weather packets stored in our database for station/object K6CQU-13. If no packets are shown the sender has not sent any weather packets the latest 10 day(s).
| Time | Temp. | Humidity | Pressure | Rain* | Wind** | Luminosity | Snow |
|---|---|---|---|---|---|---|---|
| 1788036316 | 28.33° C | 48% | 1013 hPa | 0 mm | - | 845 W/m² | - |
| 1788036016 | 27.78° C | 50% | 1013 hPa | 0 mm | - | 847 W/m² | - |
| 1788035716 | 27.78° C | 49% | 1013.1 hPa | 0 mm | - | 850 W/m² | - |
| 1788035416 | 27.22° C | 49% | 1013.1 hPa | 0 mm | - | 851 W/m² | - |
| 1788035116 | 27.22° C | 49% | 1013.2 hPa | 0 mm | - | 853 W/m² | - |
| 1788034816 | 27.22° C | 50% | 1013.2 hPa | 0 mm | - | 855 W/m² | - |
| 1788034516 | 27.22° C | 49% | 1013.3 hPa | 0 mm | - | 854 W/m² | - |
| 1788034216 | 26.67° C | 49% | 1013.3 hPa | 0 mm | - | 854 W/m² | - |
| 1788033916 | 26.67° C | 49% | 1013.5 hPa | 0 mm | - | 852 W/m² | - |
| 1788033616 | 26.67° C | 49% | 1013.5 hPa | 0 mm | - | 852 W/m² | - |
| 1788033316 | 26.67° C | 49% | 1013.5 hPa | 0 mm | - | 850 W/m² | - |
| 1788033016 | 26.67° C | 49% | 1013.7 hPa | 0 mm | - | 850 W/m² | - |
| 1788032716 | 26.11° C | 49% | 1013.8 hPa | 0 mm | - | 847 W/m² | - |
| 1788032416 | 25.56° C | 52% | 1013.8 hPa | 0 mm | - | 844 W/m² | - |
| 1788032116 | 25.56° C | 52% | 1013.9 hPa | 0 mm | - | 842 W/m² | - |
| 1788031816 | 25.56° C | 52% | 1013.9 hPa | 0 mm | - | 838 W/m² | - |
| 1788031516 | 25.56° C | 52% | 1014 hPa | 0 mm | - | 833 W/m² | - |
| 1788031216 | 25° C | 54% | 1014.1 hPa | 0 mm | - | 829 W/m² | - |
| 1788030916 | 25° C | 55% | 1014.1 hPa | 0 mm | - | 824 W/m² | - |
| 1788030616 | 25° C | 55% | 1014.3 hPa | 0 mm | - | 818 W/m² | - |
| 1788030316 | 25° C | 56% | 1014.3 hPa | 0 mm | - | 812 W/m² | - |
| 1788030018 | 24.44° C | 55% | 1014.4 hPa | 0 mm | - | 807 W/m² | - |
| 1788029718 | 24.44° C | 56% | 1014.4 hPa | 0 mm | - | 802 W/m² | - |
| 1788029418 | 25° C | 55% | 1014.5 hPa | 0 mm | - | 796 W/m² | - |
| 1788029118 | 25° C | 53% | 1014.5 hPa | 0 mm | - | 789 W/m² | - |
* Rain latest hour (hover to see other rain measurements)
** Current wind speed in m/s (hover to see current wind gust speed)